Location: T�bingen+AIT
(48.5342°N, 9.0700°E)
Time: 20:24:57
(UTC+02:00)

EP 2 - Pass Details

Date: 14 September 2017
Orbit: 319 x 1715 km, 63.3° (Epoch: 28 October)

Event Time Altitude Azimuth Distance (km) Brightness Sun altitude
Rises 20:15:25 0° 218° (SW) 2,072 8.6 -6.9°
Reaches altitude 10° 20:17:19 10° 218° (SW) 1,227 7.5 -7.2°
Maximum altitude 20:19:54 82° 131° (SE) 336 4.2 -7.6°
Drops below altitude 10° 20:22:44 10° 43° (NE) 1,340 7.0 -8.1°
Sets 20:24:53 0° 42° (NE) 2,298 8.2 -8.4°
